[[{"header":{"parameterUnit":"m.s-1","parameterCategory":2,"la1":30.2992,"la2":30.254,"lo1":-89.0895,"lo2":-89.0443,"dy":0.0025,"dx":0.0025,"nx":19,"ny":19,"refTime":"2026-04-23T21:00:00:Z","depth":"0","parameterNumber":2,"parameterNumberName":"U-component_of_CURRENTS"},"data":[0,0,0,-0.3194,-0.3195,-0.3262,-0.3262,-0.3321,-0.3322,0,0,0,0,0,0,0,0,0,0,0,-0.3153,-0.3154,-0.3194,-0.3196,-0.3261,-0.3262,-0.3321,-0.3322,0,0,0,0,0,0,0,0,0,0,0,-0.3153,-0.3154,-0.3154,-0.3196,-0.3261,-0.3262,-0.3321,-0.3276,0,0,0,0,0,0,0,0,0,0,-0.3214,-0.3172,-0.3154,-0.3154,-0.3196,-0.3261,-0.3262,-0.3274,-0.3278,-0.3287,0,-0.3292,0,-0.332,-0.3326,-0.3326,0,0,0,-0.3187,-0.3168,-0.3201,-0.3154,-0.3197,-0.3261,-0.3229,-0.3276,-0.3282,-0.3293,-0.3293,-0.3296,-0.3321,-0.3327,-0.3327,-0.3411,-0.3412,0,0,-0.3184,-0.3153,-0.3198,-0.3205,-0.3207,-0.3227,-0.3232,-0.328,-0.3273,-0.3293,-0.3298,-0.3322,-0.3327,-0.3327,-0.3411,-0.3411,0,0,0,-0.3179,-0.315,-0.3182,-0.3201,-0.3222,-0.3229,-0.3234,-0.327,-0.3285,-0.3299,-0.3322,-0.3327,-0.3328,-0.341,-0.3411,-0.344,0,0,0,-0.3176,-0.3148,-0.318,-0.316,-0.3221,-0.3249,-0.3223,-0.3281,-0.3288,-0.3322,-0.3327,-0.3329,-0.341,-0.3411,-0.3438,-0.345,0,0,0,-0.3152,-0.3146,-0.3154,-0.3159,-0.3195,-0.3249,-0.3266,-0.3283,-0.3303,-0.3326,-0.3329,-0.3409,-0.341,-0.3437,-0.3447,-0.3431,0,0,0,-0.3117,-0.3131,-0.3153,-0.3186,-0.3195,-0.3278,-0.3266,-0.3312,-0.3335,-0.3328,-0.341,-0.3411,-0.3436,-0.3446,-0.343,-0.3249,-0.3239,0,0,-0.3121,-0.313,-0.3157,-0.318,-0.3261,-0.3268,-0.3344,-0.3357,-0.3353,-0.3389,-0.3392,-0.3439,-0.3447,-0.3431,-0.3311,-0.3299,0,0,0,-0.3153,-0.3165,-0.3196,-0.3245,-0.3309,-0.3363,-0.3389,-0.3394,-0.3418,-0.3374,-0.3453,-0.3457,-0.3445,-0.3335,-0.3326,-0.3246,-0.3416,-0.3416,-0.3416,-0.3083,-0.3156,-0.3207,-0.3296,-0.3355,-0.3429,-0.3465,-0.3477,-0.3465,-0.3475,-0.3491,-0.3515,-0.3398,-0.3389,-0.3311,-0.3504,-0.3504,-0.3504,-0.3504,-0.3087,-0.3109,-0.3216,-0.3291,-0.3377,-0.3437,-0.3527,-0.3528,-0.3552,-0.3534,-0.3521,-0.3384,-0.3381,-0.3301,-0.3506,-0.3506,-0.3506,-0.3505,-0.3505,-0.3026,-0.3044,-0.3115,-0.3222,-0.3318,-0.3423,-0.3485,-0.3553,-0.3565,-0.3581,-0.3414,-0.3411,-0.3327,-0.355,-0.355,-0.355,-0.355,-0.355,-0.355,-0.2905,-0.2986,-0.3013,-0.3148,-0.3196,-0.3302,-0.3446,-0.3476,-0.3457,-0.343,-0.3428,-0.3316,-0.3528,-0.3511,-0.355,-0.355,-0.355,-0.355,-0.355,-0.2777,-0.2821,-0.2857,-0.2904,-0.3034,-0.3041,-0.3249,-0.3256,-0.3304,-0.3246,-0.3142,-0.3338,-0.3303,-0.3307,-0.3285,-0.3263,-0.3263,-0.3263,-0.3263,-0.2643,-0.2688,-0.2677,-0.2715,-0.2791,-0.2907,-0.2824,-0.2893,-0.2936,-0.289,-0.2985,-0.2928,-0.2943,-0.2886,-0.29,-0.287,-0.2744,-0.2744,-0.2743,-0.2512,-0.2554,-0.2477,-0.2568,-0.2653,-0.2692,-0.2525,-0.2499,-0.261,-0.2724,-0.2917,-0.2939,-0.2864,-0.2894,-0.2812,-0.2838,-0.2791,0,0]},{"header":{"parameterUnit":"m.s-1","parameterCategory":2,"la1":30.2992,"la2":30.254,"lo1":-89.0895,"lo2":-89.0443,"dy":0.0025,"dx":0.0025,"nx":19,"ny":19,"refTime":"2026-04-23T21:00:00:Z","depth":"0","parameterNumber":3,"parameterNumberName":"V-component_of_CURRENTS"},"data":[0,0,0,-0.039,-0.0389,-0.0284,-0.0283,-0.0098,-0.0097,0,0,0,0,0,0,0,0,0,0,0,-0.0429,-0.0429,-0.039,-0.0388,-0.0284,-0.0283,-0.0099,-0.0097,0,0,0,0,0,0,0,0,0,0,0,-0.0429,-0.0429,-0.0428,-0.0388,-0.0284,-0.0283,-0.0099,-0.0186,0,0,0,0,0,0,0,0,0,0,-0.0292,-0.0354,-0.0429,-0.0428,-0.0388,-0.0284,-0.0283,-0.019,-0.018,-0.0138,0,-0.0137,0,-0.0118,-0.0085,-0.0084,0,0,0,-0.0369,-0.0363,-0.0326,-0.0428,-0.0387,-0.0284,-0.0325,-0.0185,-0.0174,-0.0124,-0.0134,-0.0127,-0.0115,-0.0084,-0.0083,0.0032,0.0032,0,0,-0.0374,-0.041,-0.0334,-0.0319,-0.0378,-0.0329,-0.0322,-0.0179,-0.0179,-0.0133,-0.0123,-0.0112,-0.0083,-0.0081,0.0032,0.0032,0,0,0,-0.0404,-0.0415,-0.0382,-0.0327,-0.0315,-0.0326,-0.0319,-0.0185,-0.0172,-0.0121,-0.011,-0.0082,-0.008,0.0032,0.0032,-0.0086,0,0,0,-0.0407,-0.0433,-0.0385,-0.0405,-0.0319,-0.0259,-0.0329,-0.0182,-0.0165,-0.0111,-0.0082,-0.0078,0.0032,0.0032,-0.0083,-0.0137,0,0,0,-0.043,-0.0436,-0.0428,-0.0407,-0.037,-0.0261,-0.0239,-0.0178,-0.0159,-0.0084,-0.0077,0.0032,0.0032,-0.008,-0.0131,-0.0086,0,0,0,-0.0463,-0.0493,-0.0429,-0.046,-0.0371,-0.0337,-0.024,-0.02,-0.0148,-0.0081,0.0032,0.0032,-0.0079,-0.0128,-0.0084,0.001,0.0007,0,0,-0.0524,-0.0501,-0.052,-0.0461,-0.0472,-0.0349,-0.0329,-0.0217,-0.0128,-0.0008,-0.0005,-0.0084,-0.0131,-0.0085,0.0003,0.0001,0,0,0,-0.0555,-0.0574,-0.0565,-0.0555,-0.0494,-0.0426,-0.0311,-0.0241,-0.0136,-0.0099,-0.0053,-0.0078,-0.0045,0.0016,0.0015,0.0317,0.0031,0.0031,0.0031,-0.0675,-0.0647,-0.0685,-0.064,-0.0604,-0.0471,-0.04,-0.0273,-0.0191,-0.016,-0.0152,-0.017,-0.0107,-0.0107,0.0202,-0.0123,-0.0123,-0.0123,-0.0124,-0.0794,-0.0825,-0.0777,-0.0803,-0.0704,-0.066,-0.0476,-0.0392,-0.0261,-0.0216,-0.0178,-0.0085,-0.0115,0.0216,-0.0131,-0.013,-0.0129,-0.0128,-0.0127,-0.0887,-0.09,-0.0905,-0.0927,-0.0892,-0.0768,-0.0687,-0.0533,-0.0369,-0.034,-0.0183,-0.0179,0.0099,-0.03,-0.03,-0.0301,-0.0301,-0.0301,-0.0301,-0.098,-0.0985,-0.1049,-0.1052,-0.1061,-0.1007,-0.0805,-0.068,-0.043,-0.0288,-0.0285,0.0146,-0.0221,-0.0229,-0.0302,-0.0302,-0.0301,-0.0301,-0.0301,-0.1099,-0.1091,-0.1197,-0.1231,-0.1245,-0.1205,-0.1007,-0.0669,-0.0493,-0.0345,0.0198,-0.0212,-0.0145,-0.014,-0.0143,-0.0189,-0.0189,-0.0189,-0.0189,-0.117,-0.1179,-0.1313,-0.1384,-0.1412,-0.1295,-0.1071,-0.0669,-0.0034,0.032,0.0414,0.0498,0.048,0.059,0.0577,0.0593,0.0734,0.0736,0.0737,-0.1242,-0.128,-0.138,-0.1446,-0.1485,-0.1368,-0.1109,-0.0565,0.0381,0.0804,0.0817,0.0778,0.0928,0.0875,0.1066,0.1025,0.1055,0,0]}],[{"header":{"parameterUnit":"m.s-1","parameterCategory":2,"la1":30.2992,"la2":30.254,"lo1":-89.0895,"lo2":-89.0443,"dy":0.0025,"dx":0.0025,"nx":19,"ny":19,"refTime":"2026-04-23T21:00:00:Z","depth":"2","parameterNumber":2,"parameterNumberName":"U-component_of_CURRENTS"},"data":[0,0,0,-0.2997,-0.2998,-0.3072,-0.3072,-0.3125,-0.3125,0,0,0,0,0,0,0,0,0,0,0,-0.2956,-0.2956,-0.2996,-0.2999,-0.3072,-0.3072,-0.3124,-0.3125,0,0,0,0,0,0,0,0,0,0,0,-0.2956,-0.2956,-0.2957,-0.2999,-0.3071,-0.3072,-0.3124,-0.3077,0,0,0,0,0,0,0,0,0,0,-0.3011,-0.2973,-0.2956,-0.2957,-0.2999,-0.3071,-0.3072,-0.3075,-0.308,-0.3082,0,-0.309,0,-0.3119,-0.3128,-0.3128,0,0,0,-0.2991,-0.2969,-0.3002,-0.2957,-0.3,-0.3071,-0.3036,-0.3078,-0.3084,-0.3088,-0.3091,-0.3094,-0.312,-0.3129,-0.3129,-0.3201,-0.3202,0,0,-0.2987,-0.2957,-0.2998,-0.3005,-0.3014,-0.3034,-0.3039,-0.3082,-0.3077,-0.3091,-0.3096,-0.312,-0.3129,-0.3129,-0.3201,-0.3202,0,0,0,-0.298,-0.2954,-0.2987,-0.3002,-0.3024,-0.3036,-0.3042,-0.3074,-0.3089,-0.3097,-0.3121,-0.3129,-0.313,-0.3201,-0.3201,-0.3234,0,0,0,-0.2977,-0.2952,-0.2985,-0.2967,-0.3024,-0.3055,-0.3032,-0.3085,-0.3092,-0.3121,-0.3129,-0.313,-0.32,-0.3201,-0.3232,-0.3242,0,0,0,-0.2954,-0.295,-0.2959,-0.2965,-0.3004,-0.3055,-0.3071,-0.3087,-0.3107,-0.3128,-0.313,-0.32,-0.3201,-0.3231,-0.3239,-0.3225,0,0,0,-0.292,-0.2935,-0.2958,-0.2991,-0.3003,-0.3082,-0.3071,-0.3118,-0.3139,-0.3129,-0.32,-0.3201,-0.323,-0.3238,-0.3224,-0.3034,-0.3024,0,0,-0.2925,-0.2934,-0.296,-0.2985,-0.306,-0.3072,-0.3142,-0.3157,-0.3154,-0.318,-0.3183,-0.3233,-0.3239,-0.3225,-0.3093,-0.308,0,0,0,-0.2955,-0.2968,-0.2997,-0.3045,-0.3106,-0.3157,-0.3184,-0.3191,-0.3215,-0.3173,-0.3244,-0.3247,-0.3236,-0.3121,-0.3112,-0.3206,-0.3206,-0.3206,-0.3206,-0.2891,-0.2959,-0.3006,-0.3088,-0.3144,-0.3216,-0.3251,-0.3265,-0.3256,-0.3268,-0.3283,-0.3307,-0.3185,-0.3176,-0.3295,-0.3295,-0.3295,-0.3295,-0.3295,-0.2892,-0.2911,-0.301,-0.308,-0.3161,-0.3221,-0.3305,-0.3312,-0.3337,-0.3323,-0.3311,-0.3172,-0.3167,-0.3298,-0.3298,-0.3297,-0.3297,-0.3297,-0.3297,-0.2834,-0.2849,-0.2917,-0.3015,-0.3107,-0.3208,-0.3265,-0.3334,-0.3353,-0.337,-0.3202,-0.3199,-0.3304,-0.3346,-0.3346,-0.3346,-0.3346,-0.3346,-0.3346,-0.2719,-0.2794,-0.2818,-0.2943,-0.2989,-0.309,-0.323,-0.3259,-0.3242,-0.3217,-0.3215,-0.3323,-0.3321,-0.3306,-0.3346,-0.3346,-0.3346,-0.3346,-0.3346,-0.2598,-0.264,-0.2669,-0.2711,-0.2828,-0.2823,-0.3024,-0.303,-0.3082,-0.3025,-0.3118,-0.3124,-0.3085,-0.309,-0.3069,-0.3045,-0.3045,-0.3045,-0.3045,-0.2472,-0.2513,-0.2495,-0.2523,-0.2584,-0.2684,-0.2575,-0.2591,-0.2709,-0.2691,-0.2706,-0.2646,-0.2666,-0.2602,-0.2618,-0.2587,-0.2437,-0.2436,-0.2435,-0.2347,-0.2383,-0.2304,-0.238,-0.2445,-0.2465,-0.2251,-0.2078,-0.2144,-0.2413,-0.262,-0.3,-0.2953,-0.2968,-0.2903,-0.2916,-0.2879,0,0]},{"header":{"parameterUnit":"m.s-1","parameterCategory":2,"la1":30.2992,"la2":30.254,"lo1":-89.0895,"lo2":-89.0443,"dy":0.0025,"dx":0.0025,"nx":19,"ny":19,"refTime":"2026-04-23T21:00:00:Z","depth":"2","parameterNumber":3,"parameterNumberName":"V-component_of_CURRENTS"},"data":[0,0,0,-0.0404,-0.0402,-0.03,-0.0299,-0.0124,-0.0122,0,0,0,0,0,0,0,0,0,0,0,-0.0441,-0.0441,-0.0404,-0.0402,-0.03,-0.0299,-0.0124,-0.0122,0,0,0,0,0,0,0,0,0,0,0,-0.0441,-0.0441,-0.0441,-0.0402,-0.03,-0.0299,-0.0124,-0.0208,0,0,0,0,0,0,0,0,0,0,-0.0311,-0.037,-0.0441,-0.0441,-0.0401,-0.03,-0.0299,-0.0212,-0.0203,-0.0163,0,-0.0162,0,-0.0144,-0.0111,-0.0111,0,0,0,-0.0383,-0.0379,-0.0342,-0.0441,-0.0401,-0.0301,-0.0341,-0.0207,-0.0196,-0.015,-0.0159,-0.0153,-0.0141,-0.011,-0.0109,-0.0003,-0.0003,0,0,-0.0388,-0.0423,-0.035,-0.0337,-0.0391,-0.0344,-0.0338,-0.0201,-0.0201,-0.0159,-0.0149,-0.0138,-0.0109,-0.0108,-0.0003,-0.0003,0,0,0,-0.0418,-0.0428,-0.0396,-0.0344,-0.0332,-0.0342,-0.0334,-0.0207,-0.0195,-0.0147,-0.0136,-0.0108,-0.0106,-0.0003,-0.0003,-0.0119,0,0,0,-0.042,-0.0445,-0.0399,-0.0418,-0.0335,-0.0278,-0.0344,-0.0204,-0.0188,-0.0137,-0.0108,-0.0105,-0.0003,-0.0003,-0.0115,-0.0174,0,0,0,-0.0443,-0.0448,-0.044,-0.042,-0.0384,-0.0279,-0.0259,-0.02,-0.0182,-0.0111,-0.0104,-0.0003,-0.0003,-0.0113,-0.0168,-0.0129,0,0,0,-0.0475,-0.0501,-0.0441,-0.0469,-0.0385,-0.0352,-0.0259,-0.022,-0.017,-0.0107,-0.0003,-0.0003,-0.0112,-0.0164,-0.0127,-0.0045,-0.0048,0,0,-0.053,-0.0508,-0.0525,-0.047,-0.048,-0.0363,-0.0347,-0.0239,-0.0152,-0.0041,-0.0038,-0.0117,-0.0167,-0.0129,-0.0054,-0.0057,0,0,0,-0.0558,-0.0576,-0.0567,-0.0557,-0.0499,-0.044,-0.0329,-0.0262,-0.0163,-0.0125,-0.0087,-0.0115,-0.0087,-0.0031,-0.0034,-0.0004,-0.0004,-0.0004,-0.0004,-0.0671,-0.0645,-0.0681,-0.064,-0.0606,-0.0484,-0.0419,-0.0299,-0.0218,-0.0189,-0.0188,-0.0211,-0.0155,-0.0155,-0.0156,-0.0157,-0.0157,-0.0158,-0.0158,-0.0784,-0.0815,-0.0772,-0.0798,-0.0709,-0.067,-0.0499,-0.0418,-0.0299,-0.0251,-0.0217,-0.0131,-0.0165,-0.0166,-0.0165,-0.0164,-0.0163,-0.0162,-0.0161,-0.0874,-0.0888,-0.0894,-0.0919,-0.0893,-0.078,-0.0711,-0.0566,-0.0408,-0.0385,-0.0239,-0.0235,-0.0267,-0.0347,-0.0347,-0.0348,-0.0348,-0.0348,-0.0348,-0.0965,-0.0971,-0.1035,-0.1043,-0.1056,-0.1012,-0.0829,-0.0714,-0.0483,-0.0348,-0.0345,-0.0273,-0.0267,-0.0274,-0.035,-0.0349,-0.0349,-0.0349,-0.0349,-0.1081,-0.1075,-0.118,-0.1216,-0.1239,-0.1209,-0.1027,-0.0718,-0.0556,-0.0418,-0.028,-0.0281,-0.0218,-0.0213,-0.0216,-0.0272,-0.0272,-0.0272,-0.0272,-0.1153,-0.1161,-0.1296,-0.1371,-0.1404,-0.1299,-0.1102,-0.0746,-0.0406,-0.0234,-0.0236,-0.0203,-0.0205,-0.0139,-0.0136,-0.0136,-0.0171,-0.0171,-0.0172,-0.1227,-0.1263,-0.1365,-0.1431,-0.1477,-0.1373,-0.1145,-0.0686,-0.0229,-0.0173,-0.0272,-0.0255,-0.0209,-0.0212,-0.0108,-0.0104,-0.0102,0,0]}],[{"header":{"parameterUnit":"m.s-1","parameterCategory":2,"la1":30.2992,"la2":30.254,"lo1":-89.0895,"lo2":-89.0443,"dy":0.0025,"dx":0.0025,"nx":19,"ny":19,"refTime":"2026-04-23T21:00:00:Z","depth":"4","parameterNumber":2,"parameterNumberName":"U-component_of_CURRENTS"},"data":[0,0,0,-0.2195,-0.2199,-0.2396,-0.2397,-0.2515,-0.2516,0,0,0,0,0,0,0,0,0,0,0,-0.2128,-0.2129,-0.2194,-0.2199,-0.2396,-0.2397,-0.2515,-0.2516,0,0,0,0,0,0,0,0,0,0,0,-0.2127,-0.2129,-0.2131,-0.22,-0.2396,-0.2397,-0.2515,-0.24,0,0,0,0,0,0,0,0,0,0,-0.2225,-0.2186,-0.2129,-0.2131,-0.2201,-0.2396,-0.2397,-0.2396,-0.2407,-0.2388,0,-0.2429,0,-0.2473,-0.2521,-0.2521,0,0,0,-0.2199,-0.2177,-0.2227,-0.2131,-0.2203,-0.2396,-0.2307,-0.2403,-0.2415,-0.2402,-0.2432,-0.2437,-0.2475,-0.2521,-0.2522,-0.2616,-0.2617,0,0,-0.2188,-0.2163,-0.2218,-0.2235,-0.2266,-0.2301,-0.2314,-0.2412,-0.2428,-0.2432,-0.2441,-0.2477,-0.2522,-0.2522,-0.2616,-0.2616,0,0,0,-0.2157,-0.2155,-0.2206,-0.2229,-0.2275,-0.2307,-0.2321,-0.2424,-0.2441,-0.2442,-0.2478,-0.2522,-0.2523,-0.2615,-0.2616,-0.2655,0,0,0,-0.2151,-0.2137,-0.2201,-0.2188,-0.2274,-0.2371,-0.2331,-0.2434,-0.2447,-0.2477,-0.2522,-0.2524,-0.2615,-0.2616,-0.2652,-0.2654,0,0,0,-0.2117,-0.2134,-0.216,-0.2186,-0.2272,-0.2371,-0.2395,-0.2439,-0.2468,-0.2521,-0.2524,-0.2614,-0.2615,-0.265,-0.2651,-0.2643,0,0,0,-0.2078,-0.2117,-0.216,-0.2223,-0.227,-0.2384,-0.2395,-0.249,-0.2541,-0.2523,-0.2615,-0.2616,-0.265,-0.265,-0.2641,-0.2321,0,0,0,-0.2097,-0.2119,-0.2156,-0.2199,-0.2299,-0.2356,-0.2458,-0.253,-0.2545,-0.2571,-0.2575,-0.2653,-0.2651,-0.2642,-0.2393,0,0,0,0,-0.2143,-0.2167,-0.2207,-0.2283,-0.237,-0.2456,-0.2536,-0.2563,-0.2628,-0.2583,-0.2666,-0.2664,-0.2656,-0.2467,-0.2622,-0.2621,-0.2621,-0.2621,-0.2621,-0.21,-0.2168,-0.2235,-0.233,-0.241,-0.2532,-0.2595,-0.2644,-0.2658,-0.2694,-0.2706,-0.2738,-0.2542,-0.2725,-0.2725,-0.2725,-0.2725,-0.2725,-0.2726,-0.2101,-0.2126,-0.2243,-0.2336,-0.2445,-0.2541,-0.2651,-0.2689,-0.2745,-0.2748,-0.2739,-0.2535,-0.273,-0.2729,-0.2728,-0.2728,-0.2727,-0.2727,-0.2727,-0.2037,-0.2056,-0.2153,-0.2283,-0.2413,-0.2547,-0.2609,-0.2713,-0.2765,-0.2789,-0.2561,-0.2752,-0.2734,-0.2783,-0.2783,-0.2783,-0.2783,-0.2783,-0.2783,-0.1908,-0.2004,-0.2062,-0.2222,-0.2299,-0.242,-0.2588,-0.2612,-0.2701,-0.2558,-0.2792,-0.2756,-0.2755,-0.2737,-0.2783,-0.2783,-0.2783,-0.2783,-0.2783,-0.178,-0.1847,-0.1902,-0.1978,-0.2132,-0.2192,-0.2411,-0.2399,-0.239,-0.2317,-0.242,-0.2438,-0.2384,-0.2391,-0.2358,-0.2293,-0.2289,-0.2285,0,-0.166,-0.1707,-0.1739,-0.1791,-0.1836,-0.203,-0.1957,-0.204,-0.2118,-0.2045,-0.2377,-0.2494,-0.2505,-0.2446,-0.2446,-0.2406,0,0,0,-0.155,-0.1586,-0.1546,-0.1641,-0.1678,-0.1748,-0.1918,-0.1856,-0.2131,-0.2034,-0.2185,-0.2211,-0.2569,-0.2782,-0.2741,-0.2739,-0.2708,0,0]},{"header":{"parameterUnit":"m.s-1","parameterCategory":2,"la1":30.2992,"la2":30.254,"lo1":-89.0895,"lo2":-89.0443,"dy":0.0025,"dx":0.0025,"nx":19,"ny":19,"refTime":"2026-04-23T21:00:00:Z","depth":"4","parameterNumber":3,"parameterNumberName":"V-component_of_CURRENTS"},"data":[0,0,0,-0.0301,-0.03,-0.0235,-0.0234,-0.0101,-0.01,0,0,0,0,0,0,0,0,0,0,0,-0.0326,-0.0326,-0.0301,-0.03,-0.0235,-0.0234,-0.0101,-0.01,0,0,0,0,0,0,0,0,0,0,0,-0.0326,-0.0326,-0.0326,-0.03,-0.0235,-0.0234,-0.0101,-0.0159,0,0,0,0,0,0,0,0,0,0,-0.0227,-0.0273,-0.0326,-0.0326,-0.03,-0.0235,-0.0234,-0.0162,-0.0155,-0.0122,0,-0.0125,0,-0.0114,-0.0091,-0.0091,0,0,0,-0.0284,-0.0279,-0.0254,-0.0326,-0.0299,-0.0235,-0.0259,-0.0159,-0.0151,-0.0112,-0.0123,-0.0119,-0.0112,-0.009,-0.009,-0.0011,-0.0011,0,0,-0.0287,-0.0314,-0.026,-0.025,-0.0299,-0.0262,-0.0258,-0.0154,-0.0156,-0.0123,-0.0116,-0.011,-0.009,-0.0089,-0.0011,-0.0011,0,0,0,-0.0309,-0.0317,-0.0295,-0.0255,-0.025,-0.026,-0.0255,-0.0161,-0.0153,-0.0114,-0.0108,-0.0089,-0.0087,-0.0011,-0.0011,-0.0113,0,0,0,-0.031,-0.033,-0.0298,-0.0312,-0.0253,-0.0214,-0.0265,-0.016,-0.0148,-0.0109,-0.0089,-0.0086,-0.0011,-0.0011,-0.011,-0.0173,0,0,0,-0.0326,-0.0332,-0.0328,-0.0314,-0.0292,-0.0216,-0.0201,-0.0157,-0.0144,-0.0091,-0.0086,-0.0011,-0.0011,-0.0107,-0.0167,-0.0142,0,0,0,-0.0348,-0.0367,-0.0329,-0.0351,-0.0293,-0.0273,-0.0202,-0.0174,-0.0137,-0.0088,-0.0011,-0.0011,-0.0106,-0.0164,-0.014,-0.0147,0,0,0,-0.0385,-0.0372,-0.0385,-0.035,-0.0364,-0.028,-0.0278,-0.0196,-0.0124,-0.0038,-0.0036,-0.0111,-0.0167,-0.0142,-0.0159,0,0,0,0,-0.0406,-0.0422,-0.0418,-0.0419,-0.0381,-0.0352,-0.0268,-0.0218,-0.0143,-0.0105,-0.0086,-0.0118,-0.0099,-0.0095,-0.0012,-0.0012,-0.0012,-0.0012,-0.0012,-0.0486,-0.0473,-0.0508,-0.0489,-0.0471,-0.0394,-0.0355,-0.0265,-0.0192,-0.0171,-0.0183,-0.0213,-0.0213,-0.0149,-0.015,-0.015,-0.0151,-0.0151,-0.0151,-0.0568,-0.0595,-0.0585,-0.0615,-0.0572,-0.0556,-0.0438,-0.0375,-0.0293,-0.0243,-0.0217,-0.0182,-0.0161,-0.0159,-0.0157,-0.0156,-0.0155,-0.0155,-0.0154,-0.0629,-0.0642,-0.0666,-0.0714,-0.0726,-0.066,-0.063,-0.0525,-0.0394,-0.0383,-0.0308,-0.0259,-0.0268,-0.0348,-0.0348,-0.0348,-0.0348,-0.0349,-0.0349,-0.0679,-0.0702,-0.0775,-0.0815,-0.0852,-0.0847,-0.074,-0.0659,-0.0518,-0.0428,-0.0402,-0.0278,-0.0271,-0.0277,-0.0352,-0.0351,-0.0351,-0.035,-0.035,-0.0747,-0.0762,-0.0869,-0.0926,-0.0997,-0.0981,-0.0893,-0.0694,-0.0605,-0.0495,-0.0413,-0.0409,-0.0361,-0.0352,-0.0358,-0.046,-0.046,-0.046,0,-0.0789,-0.0806,-0.0948,-0.1041,-0.1092,-0.1049,-0.0929,-0.0801,-0.061,-0.0608,-0.0611,-0.0528,-0.052,-0.0476,-0.0468,-0.0482,0,0,0,-0.0837,-0.0876,-0.0977,-0.1068,-0.1128,-0.098,-0.0888,-0.0811,-0.0649,-0.0535,-0.047,-0.0467,-0.0447,-0.036,-0.0276,-0.0268,-0.0271,0,0]}]]